STARLINK-11624, 63105

Orbit data source: Space-Track

STARLINK-11624, 63105 is a payload satellite owned by SpaceX/Seattle (US) in LEO that was launched on Thu, 27 Feb 2025 UTC via an FALCON 9 launch vehicle from the Air Force Eastern Test Range (AFETR). Payload-class satellites include a variety of spacecraft equipped with specific instruments for various scientific and technological missions. These include communications satellites like Starlink; space stations such as the ISS; scientific satellites like the Hubble; Earth observation satellites from companies like Planet Labs, Umbra, and HawkEye 360; GPS; miniature CubeSats for education and research; and military/defense satellites.

Loading next visibility...
Identifier
63105, 2025-039B
Orbit
LEO
Country
Flag of USUS
Related business
Manufacturer
SpaceX/Seattle
Mission
Operational Commercial Communications
Bus & Motor
STARLINK V2MD, Unknown motor
Mass
960 kg wet, ~910 kg dry
Launch date (UTC)
2025-02-27 (11 months ago)
Launch vehicle
FALCON 9
Launch site
Air Force Eastern Test Range (AFETR)
Object type
Payload
Rocket body
Debris
Shape & HBR
Box + 2 Pan, 18.1 m
Radar Cross Section
36.964 m², Large (>1 m²)

Expand to show TLE details & history
Last TLE update: 6 hours ago

TLE from 6 hours ago
0 STARLINK-11624
1 63105U 25039B   26035.26021053  .00479945  00000-0  35458-2 0  9994
2 63105  42.9986  78.7236 0001557 186.8724 173.2122 15.70747231 54354
Epoch: 2026-02-04T06:14Z
TLE epoch observation values (Epoch: 2026-02-04T06:14:42.189Z)
Latitude
-0.00006°
Longitude
-149.3816°
Altitude
357.572 km
Speed
7.696 km/s
True Right ascension
05h 14m 53s
True Declination
0° 00' 00"
Sunlit
Object was in full shadow at epoch
Visualization orbit readout
Latitude
Unknown
Longitude
Unknown
Altitude
Unknown
Speed
Unknown
Apparent Right ascension
Unknown
Apparent Declination
Unknown
Sunlit
N/A
Visualization observer readout
Local Sidereal Time
14:00:41
Azimuth
Unknown
Elevation
Unknown
Doppler factor
Unknown
Orbital elements
Apogee altitude
359.791 km
Perigee altitude
357.693 km
Semi-major axis
6,736.879 km
Eccentricity
0.00016
Inclination
42.9986°
RAAN
78.7236°
Arg. of periapsis
186.8724°
True anomaly
173.21431°
Mean anomaly
173.2122°
Eccentric anomaly
173.21325°
Mean motion
3.92514 °/min
Orbital period
91.72 mins
BSTAR
0.0035458
Loading maneuver chart data...
Computing Atmospheric mass density...
Loading historical data...
Loading historical data...
Loading historical data...
Loading historical data...
Loading historical data...
Loading historical data...
Loading historical data...

Documentation

Showing up to 5 results
|